Hlavní strana
METAR-TAF:

METAR-TAF

Letiště :

Fernandina Beach, Florida, Spojené státy americké

zeměpisná šířka: 30-36-43N, zeměpisná délka: 081-27-40W, výška: 5 m

Aktuální stav počasí

Zpráva byla vytvořena před 7 minutami, v 18:15 UTC
Severozápadní vítr 11 kt
Teplota 12°C
Vlhkost vzduchu 100%
Tlak 1014 hPa
Viditelnost: 8.0 km
Zataženo ve výšce 300 ft
kouřmo

METAR: KFHB 151815Z AUTO 31011KT 5SM BR OVC003 12/12 A2993 RMK AO2 T0120////

Čas: 13:22 (18:22 UTC)


TAF: chybějící

Stav a předpovědi počasí z více než 4 000 letišť (zprávy METAR a TAF).

Červené a žluté tečky na mapě představují dostupné meteorologické stanice.

Když kurzor umístíte na tečku, zobrazí se název stanice.

Pak kliknutím zobrazíte stav a předpověď počasí.

Chcete-li změnit mapu, kliknutím na zelené tlačítko se znaménkem +mapu přiblížíte, kliknutím na zelené tlačítko se znaménkem – mapu oddálíte a kliknutím na zelené šipky přejdete na sousední mapy.


METAR-TAF: